KR4ELZ Weather Reports


time (UTC)temp
F
wind
direction
speed
knots
gust
knots
rain 1hr
in
rain 24hr
in
rain mn
in
humidity
%
barometer
mb
20260510205248 81 237 0.0 0.0 0.00 0.00 0.00 50 1015.1
20260510204744 82 235 0.0 0.9 0.00 0.00 0.00 54 1015.1
20260510204241 84 235 0.0 0.0 0.00 0.00 0.00 50 1015.4
20260510203738 84 235 0.0 0.0 0.00 0.00 0.00 44 1015.2
20260510203235 83 235 0.9 0.9 0.00 0.00 0.00 49 1015.4
20260510202735 82 219 0.0 0.0 0.00 0.00 0.00 50 1015.4
20260510202230 82 215 0.9 0.9 0.00 0.00 0.00 52 1015.5
20260510201728 85 228 0.9 0.9 0.00 0.00 0.00 42 1015.4
20260510201224 86 228 0.0 0.0 0.00 0.00 0.00 43 1015.5
20260510200721 86 229 0.0 0.0 0.00 0.00 0.00 42 1015.5
20260510200219 87 201 1.7 1.7 0.00 0.00 0.00 40 1015.8
20260510195716 87 219 0.9 0.9 0.00 0.00 0.00 41 1015.8
20260510195212 87 246 2.6 3.5 0.00 0.00 0.00 39 1015.7
20260510194711 87 242 0.9 0.9 0.00 0.00 0.00 38 1015.9
20260510194209 86 250 0.9 1.7 0.00 0.00 0.00 40 1015.9
20260510193704 85 240 0.0 0.0 0.00 0.00 0.00 45 1015.9
20260510193159 86 237 0.9 0.9 0.00 0.00 0.00 44 1015.9
20260510192655 86 252 0.9 1.7 0.00 0.00 0.00 41 1015.9
20260510192150 86 246 0.9 0.9 0.00 0.00 0.00 39 1015.6
20260510191647 86 242 0.9 0.9 0.00 0.00 0.00 40 1016.1
20260510191143 87 181 0.9 0.9 0.00 0.00 0.00 39 1015.9
20260510190641 86 174 0.0 0.9 0.00 0.00 0.00 43 1015.8
20260510190138 85 168 0.9 1.7 0.00 0.00 0.00 43 1015.8
20260510185634 85 226 0.9 0.9 0.00 0.00 0.00 49 1015.8
20260510185133 84 143 0.9 0.9 0.00 0.00 0.00 44 1015.7
20260510184629 85 17 0.9 1.7 0.00 0.00 0.00 43 1015.7
20260510184125 83 231 0.9 1.7 0.00 0.00 0.00 45 1015.8
20260510183620 83 166 0.9 0.9 0.00 0.00 0.00 46 1015.9
20260510183116 84 166 0.9 1.7 0.00 0.00 0.00 47 1016.1
20260510182613 84 259 0.9 1.7 0.00 0.00 0.00 46 1015.9
20260510182108 84 243 1.7 1.7 0.00 0.00 0.00 47 1015.9
20260510181606 84 232 0.9 0.9 0.00 0.00 0.00 46 1016.0
20260510181102 84 13 1.7 2.6 0.00 0.00 0.00 45 1016.0
20260510180558 83 224 0.9 0.9 0.00 0.00 0.00 47 1016.2
20260510180056 83 244 1.7 1.7 0.00 0.00 0.00 51 1016.2
20260510175557 84 201 0.9 0.9 0.00 0.00 0.00 52 1016.2
20260510175052 84 194 1.7 1.7 0.00 0.00 0.00 46 1016.6
20260510174551 82 227 0.0 0.0 0.00 0.00 0.00 50 1016.4
20260510174048 82 241 0.9 0.9 0.00 0.00 0.00 54 1016.4
20260510173543 82 238 0.0 0.9 0.00 0.00 0.00 55 1016.5
20260510173040 82 46 0.9 0.9 0.00 0.00 0.00 52 1016.6
20260510172536 84 221 0.0 0.9 0.00 0.00 0.00 50 1016.7
20260510172032 82 195 0.0 0.0 0.00 0.00 0.00 57 1016.8
20260510171529 81 193 0.0 0.9 0.00 0.00 0.00 56 1016.8
20260510171026 80 192 0.0 0.9 0.00 0.00 0.00 54 1016.6
20260510170523 79 239 0.0 0.9 0.00 0.00 0.00 59 1016.9
20260510170020 80 249 2.6 2.6 0.00 0.00 0.00 58 1016.8
20260510165515 82 22 0.9 1.7 0.00 0.00 0.00 56 1016.7
20260510165012 83 231 0.0 0.0 0.00 0.00 0.00 58 1016.8
20260510164509 83 242 0.9 1.7 0.00 0.00 0.00 51 1016.6
20260510164004 83 276 0.9 1.7 0.00 0.00 0.00 51 1016.7
20260510163500 83 252 1.7 2.6 0.00 0.00 0.00 54 1016.7
20260510162955 81 194 0.0 0.0 0.00 0.00 0.00 54 1016.7
20260510162452 80 271 0.9 1.7 0.00 0.00 0.00 58 1016.8
20260510161949 81 224 0.9 0.9 0.00 0.00 0.00 54 1016.8
20260510161444 80 237 0.9 0.9 0.00 0.00 0.00 62 1016.8
20260510160942 80 194 0.0 0.9 0.00 0.00 0.00 61 1017.0
20260510160439 79 228 0.0 0.9 0.00 0.00 0.00 62 1016.9
20260510155937 78 268 1.7 2.6 0.00 0.00 0.00 63 1016.8
20260510155434 80 231 1.7 1.7 0.00 0.00 0.00 65 1016.7
20260510154931 80 227 0.0 0.0 0.00 0.00 0.00 67 1016.7
20260510154427 81 230 1.7 1.7 0.00 0.00 0.00 60 1016.8
20260510153925 78 222 0.9 0.9 0.00 0.00 0.00 68 1016.7
20260510153423 79 225 0.9 1.7 0.00 0.00 0.00 68 1016.7
20260510152919 79 116 0.9 1.7 0.00 0.00 0.00 68 1016.7
20260510152417 78 256 0.9 1.7 0.00 0.00 0.00 72 1016.6
20260510151913 77 214 0.9 1.7 0.00 0.00 0.00 72 1016.7
20260510151411 77 217 0.9 0.9 0.00 0.00 0.00 74 1016.6
20260510150907 77 225 1.7 1.7 0.00 0.00 0.00 72 1016.7
20260510150402 76 237 0.9 0.9 0.00 0.00 0.00 74 1016.7
20260510145858 76 189 2.6 2.6 0.00 0.00 0.00 74 1016.5
20260510145355 76 230 0.9 0.9 0.00 0.00 0.00 75 1016.5
20260510144851 75 222 0.9 0.9 0.00 0.00 0.00 76 1016.4
20260510144348 75 226 0.9 0.9 0.00 0.00 0.00 77 1016.5
20260510143843 75 226 0.9 0.9 0.00 0.00 0.00 79 1016.6
20260510143339 74 229 2.6 3.5 0.00 0.00 0.00 78 1016.4
20260510142837 73 259 3.5 3.5 0.00 0.00 0.00 80 1016.5
20260510142333 74 250 1.7 1.7 0.00 0.00 0.00 79 1016.6
20260510141830 74 209 0.9 1.7 0.00 0.00 0.00 82 1016.5
20260510141327 73 158 0.0 0.9 0.00 0.00 0.00 82 1016.5
20260510140824 73 205 0.9 0.9 0.00 0.00 0.00 82 1016.5
20260510140315 73 222 0.9 0.9 0.00 0.00 0.00 81 1016.5
20260510135813 73 226 0.9 0.9 0.00 0.00 0.00 82 1016.6
20260510135309 72 234 0.9 0.9 0.00 0.00 0.00 83 1016.5
20260510134807 71 226 0.0 0.9 0.00 0.00 0.00 85 1016.3
20260510134304 70 218 0.9 0.9 0.00 0.00 0.00 85 1016.5
20260510133800 70 239 1.7 1.7 0.00 0.00 0.00 84 1016.4
20260510133256 70 215 0.9 0.9 0.00 0.00 0.00 85 1016.2
20260510132751 70 253 1.7 2.6 0.00 0.00 0.00 85 1016.1
20260510132250 70 254 0.0 0.9 0.00 0.00 0.00 86 1016.4
20260510131746 69 254 0.0 0.0 0.00 0.00 0.00 86 1016.2
20260510131244 68 254 0.9 0.9 0.00 0.00 0.00 87 1016.4
20260510130740 67 253 0.0 0.0 0.00 0.00 0.00 88 1016.3
20260510130238 67 253 0.0 0.0 0.00 0.00 0.00 89 1016.2
20260510125734 66 253 0.0 0.0 0.00 0.00 0.00 89 1016.4
20260510125230 64 254 0.0 0.0 0.00 0.00 0.00 94 1016.4
20260510124726 63 254 0.0 0.0 0.00 0.00 0.00 95 1016.3
20260510124225 62 254 0.0 0.0 0.00 0.00 0.00 97 1016.5
20260510123719 62 254 0.0 0.0 0.00 0.00 0.00 98 1016.3
20260510123216 62 254 0.0 0.0 0.00 0.00 0.00 99 1016.2
20260510122712 60 254 0.0 0.0 0.00 0.00 0.00 99 1016.1
20260510122209 60 254 0.0 0.0 0.00 0.00 0.00 99 1016.1
20260510121705 60 254 0.0 0.0 0.00 0.00 0.00 99 1015.9
20260510121203 60 254 0.0 0.0 0.00 0.00 0.00 99 1015.9
20260510120659 60 254 0.0 0.0 0.00 0.00 0.00 99 1016.0
20260510120156 59 254 0.0 0.0 0.00 0.00 0.00 99 1015.9
20260510115651 59 254 0.0 0.0 0.00 0.00 0.00 99 1015.8
20260510115150 59 254 0.0 0.0 0.00 0.00 0.00 99 1015.6
20260510114645 59 254 0.0 0.0 0.00 0.00 0.00 99 1015.9
20260510114142 58 254 0.0 0.0 0.00 0.00 0.00 99 1015.6
20260510113637 58 254 0.0 0.9 0.00 0.00 0.00 99 1015.6
20260510113134 58 254 0.9 0.9 0.00 0.00 0.00 99 1015.2
20260510112631 59 254 0.9 0.9 0.00 0.00 0.00 99 1015.4
20260510112128 59 254 0.0 0.0 0.00 0.00 0.00 99 1015.0
20260510111624 58 254 0.0 0.9 0.00 0.00 0.00 99 1015.2
20260510111120 58 254 0.9 0.9 0.00 0.00 0.00 99 1014.8
20260510110616 60 254 0.0 0.9 0.00 0.00 0.00 99 1014.8
20260510110113 59 252 0.0 0.0 0.00 0.00 0.00 99 1014.7
20260510105609 59 252 0.0 0.0 0.00 0.00 0.00 99 1014.5
20260510105103 59 252 0.0 0.0 0.00 0.00 0.00 99 1014.7
20260510104600 59 252 0.0 0.0 0.00 0.00 0.00 99 1014.6
20260510104057 59 252 0.0 0.0 0.00 0.00 0.00 99 1014.5
20260510103554 59 252 0.0 0.0 0.00 0.00 0.00 99 1014.5
20260510103050 59 252 0.0 0.0 0.00 0.00 0.00 99 1014.5
20260510102545 59 252 0.0 0.0 0.00 0.00 0.00 99 1014.5
20260510102041 59 252 0.0 0.0 0.00 0.00 0.00 99 1014.5
20260510101539 59 252 0.0 0.0 0.00 0.00 0.00 99 1014.4
20260510101038 59 252 0.0 0.0 0.00 0.00 0.00 99 1014.2
20260510100533 59 252 0.0 0.0 0.00 0.00 0.00 99 1014.3
20260510100031 59 252 0.0 0.0 0.00 0.00 0.00 99 1014.2
20260510095527 59 252 0.0 0.0 0.00 0.00 0.00 99 1014.1
20260510095026 59 252 0.0 0.0 0.00 0.00 0.00 99 1014.0
20260510094520 59 252 0.0 0.0 0.00 0.00 0.00 99 1014.1
20260510094017 59 252 0.0 0.0 0.00 0.00 0.00 99 1013.9
20260510093512 59 252 0.0 0.0 0.00 0.00 0.00 99 1013.8
20260510093009 59 253 0.0 0.0 0.00 0.00 0.00 99 1013.8
20260510092506 59 253 0.0 0.0 0.00 0.00 0.00 99 1013.7
20260510092006 59 253 0.0 0.0 0.00 0.00 0.00 99 1013.8
20260510091503 59 253 0.0 0.0 0.00 0.00 0.00 99 1013.6
20260510090959 59 253 0.0 0.0 0.00 0.00 0.00 99 1013.7
20260510090456 59 253 0.0 0.0 0.00 0.00 0.00 99 1013.8
20260510085951 60 253 0.0 0.0 0.00 0.00 0.00 99 1013.8
20260510085447 60 253 0.0 0.0 0.00 0.00 0.00 99 1013.6
20260510084942 60 253 0.0 0.0 0.00 0.00 0.00 99 1013.5
20260510084440 60 253 0.0 0.0 0.00 0.00 0.00 99 1013.7
20260510083937 60 253 0.0 0.0 0.00 0.00 0.00 98 1013.8
20260510083433 60 253 0.0 0.0 0.00 0.00 0.00 98 1013.7
20260510082928 60 253 0.0 0.0 0.00 0.00 0.00 98 1013.7
20260510082427 60 253 0.0 0.0 0.00 0.00 0.00 98 1013.6
20260510081925 60 253 0.0 0.0 0.00 0.00 0.00 98 1013.5
20260510081421 60 253 0.0 0.0 0.00 0.00 0.00 98 1013.8
20260510080918 60 253 0.0 0.0 0.00 0.00 0.00 98 1013.8
20260510080417 60 253 0.0 0.0 0.00 0.00 0.00 98 1013.6
20260510075914 60 253 0.0 0.0 0.00 0.00 0.00 98 1013.7
20260510075412 60 253 0.0 0.0 0.00 0.00 0.00 98 1013.5
20260510074908 60 253 0.0 0.0 0.00 0.00 0.00 98 1013.6
20260510074405 61 253 0.0 0.0 0.00 0.00 0.00 98 1013.6
20260510073902 61 253 0.0 0.0 0.00 0.00 0.00 98 1013.6
20260510073357 61 253 0.0 0.0 0.00 0.00 0.00 98 1013.3
20260510072854 61 253 0.0 0.0 0.00 0.00 0.00 98 1013.5
20260510072351 61 253 0.0 0.0 0.00 0.00 0.00 98 1013.3
20260510071846 61 253 0.0 0.0 0.00 0.00 0.00 98 1013.4
20260510071343 61 253 0.0 0.0 0.00 0.00 0.00 98 1013.5
20260510070842 61 253 0.0 0.0 0.00 0.00 0.00 98 1013.1
20260510070338 61 253 0.0 0.0 0.00 0.00 0.00 97 1013.3
20260510065833 62 253 0.0 0.0 0.00 0.00 0.00 97 1013.4
20260510065330 62 253 0.0 0.0 0.00 0.00 0.00 97 1012.9
20260510064827 62 253 0.0 0.0 0.00 0.00 0.00 97 1013.3
20260510064325 62 253 0.0 0.0 0.00 0.00 0.00 97 1013.0
20260510063820 62 253 0.0 0.0 0.00 0.00 0.00 97 1013.3
20260510063317 62 253 0.0 0.0 0.00 0.00 0.00 97 1013.0
20260510062814 62 253 0.0 0.0 0.00 0.00 0.00 96 1013.3
20260510062309 62 253 0.0 0.0 0.00 0.00 0.00 96 1013.1
20260510061805 62 253 0.0 0.0 0.00 0.00 0.00 96 1013.1
20260510061302 62 253 0.0 0.0 0.00 0.00 0.00 96 1013.1
20260510060758 62 253 0.0 0.0 0.00 0.00 0.00 96 1013.4
20260510060255 62 253 0.0 0.0 0.00 0.00 0.00 95 1013.3
20260510055752 62 253 0.0 0.0 0.00 0.00 0.00 95 1013.3
20260510055250 62 253 0.0 0.0 0.00 0.00 0.00 95 1013.1
20260510054750 62 253 0.0 0.0 0.00 0.00 0.00 94 1013.1
20260510054246 62 253 0.0 0.0 0.00 0.00 0.00 94 1013.3
20260510053746 62 253 0.0 0.0 0.00 0.00 0.00 94 1013.0
20260510053242 62 253 0.0 0.0 0.00 0.00 0.00 94 1013.3
20260510052738 62 253 0.0 0.0 0.00 0.00 0.00 93 1013.3
20260510052234 62 253 0.0 0.0 0.00 0.00 0.00 92 1013.0
20260510051730 62 253 0.0 0.0 0.00 0.00 0.00 92 1013.1
20260510051227 62 253 0.0 0.0 0.00 0.00 0.00 92 1013.3
20260510050724 62 253 0.0 0.0 0.00 0.00 0.00 91 1013.1
20260510050221 62 253 0.0 0.0 0.00 0.00 0.00 90 1013.3
20260510045718 62 253 0.0 0.0 0.00 0.00 0.00 90 1012.9
20260510045214 62 253 0.0 0.0 0.00 0.00 0.00 89 1013.1
20260510044710 62 253 0.0 0.0 0.00 0.00 0.00 88 1013.1
20260510044209 62 253 0.0 0.0 0.00 0.00 0.00 87 1013.0
20260510043704 62 253 0.0 0.0 0.00 0.00 0.00 86 1013.1
20260510043201 62 253 0.0 0.0 0.00 0.00 0.00 86 1013.1
20260510042658 62 253 0.0 0.0 0.00 0.00 0.00 85 1013.1
20260510042154 62 253 0.0 0.0 0.00 0.00 0.00 85 1013.4
20260510041651 62 253 0.0 0.0 0.00 0.00 0.00 85 1013.3
20260510041148 62 253 0.0 0.0 0.00 0.00 0.00 84 1013.4
20260510040645 62 253 0.0 0.0 0.00 0.00 0.00 83 1013.1
20260510040142 62 253 0.0 0.0 0.00 0.00 0.00 83 1013.1
20260510035637 62 253 0.0 0.0 0.00 0.00 0.00 82 1013.3
20260510035133 62 253 0.0 0.0 0.00 0.00 0.00 82 1013.1
20260510034630 62 253 0.0 0.0 0.00 0.00 0.00 83 1013.3
20260510034127 62 253 0.0 0.0 0.00 0.00 0.00 84 1013.1
20260510033623 62 253 0.0 0.0 0.00 0.00 0.00 84 1013.3
20260510033121 62 253 0.0 0.0 0.00 0.00 0.00 84 1013.3
20260510032617 63 253 0.0 0.0 0.00 0.00 0.00 83 1013.3
20260510032113 63 253 0.0 0.9 0.00 0.00 0.00 83 1013.4
20260510031608 63 253 0.0 0.0 0.00 0.00 0.00 81 1013.1
20260510031104 63 253 0.0 0.0 0.00 0.00 0.00 80 1013.6
20260510030559 63 253 0.0 0.0 0.00 0.00 0.00 81 1013.1
20260510030057 63 253 0.0 0.0 0.00 0.00 0.00 80 1013.0
20260510025554 64 253 0.0 0.0 0.00 0.00 0.00 80 1013.3
20260510025052 64 253 0.0 0.0 0.00 0.00 0.00 79 1013.3
20260510024548 64 253 0.0 0.0 0.00 0.00 0.00 79 1012.8
20260510024044 64 253 0.0 0.0 0.00 0.00 0.00 79 1013.3
20260510023541 64 253 0.0 0.0 0.00 0.00 0.00 78 1012.8
20260510023038 64 253 0.0 0.0 0.00 0.00 0.00 77 1012.7
20260510022537 64 253 0.0 0.0 0.00 0.00 0.00 77 1012.6
20260510022032 64 253 0.0 0.0 0.00 0.00 0.00 76 1012.6
20260510021529 65 253 0.0 0.0 0.00 0.00 0.00 76 1012.5
20260510021027 65 253 0.0 0.0 0.00 0.00 0.00 75 1012.4
20260510020526 66 253 0.9 0.9 0.00 0.00 0.00 72 1012.2
20260510020022 66 253 0.0 0.0 0.00 0.00 0.00 70 1012.1
20260510015518 66 253 0.0 0.0 0.00 0.00 0.00 71 1011.9
20260510015014 66 253 0.0 0.0 0.00 0.00 0.00 70 1011.8
20260510014511 66 253 0.0 0.0 0.00 0.00 0.00 70 1011.7
20260510014008 67 253 0.0 0.0 0.00 0.00 0.00 66 1011.6
20260510013502 68 253 0.0 0.0 0.00 0.00 0.00 66 1011.5
20260510012958 69 253 0.0 0.0 0.00 0.00 0.00 64 1011.5
20260510012453 69 253 0.0 0.0 0.00 0.00 0.00 62 1011.4
20260510011948 69 253 0.0 0.0 0.00 0.00 0.00 61 1011.2
20260510011443 69 253 0.0 0.0 0.00 0.00 0.00 63 1011.4
20260510010939 69 253 0.0 0.0 0.00 0.00 0.00 58 1011.1
20260510010437 69 253 0.0 0.0 0.00 0.00 0.00 58 1011.2
20260510005934 71 253 0.9 0.9 0.00 0.00 0.00 64 1011.3
20260510005429 71 253 0.0 0.0 0.00 0.00 0.00 63 1011.1
20260510004927 72 253 0.0 0.0 0.00 0.00 0.00 59 1010.9
20260510004424 72 253 0.0 0.0 0.00 0.00 0.00 60 1011.1
20260510003922 73 253 0.0 0.0 0.00 0.00 0.00 59 1010.5
20260510003419 74 253 0.0 0.0 0.00 0.00 0.00 57 1010.6
20260510002918 76 253 0.0 0.0 0.00 0.00 0.00 57 1010.7
20260510002416 76 252 0.0 0.0 0.00 0.00 0.00 58 1010.8
20260510001912 77 252 0.0 0.0 0.00 0.00 0.00 56 1010.5
20260510001410 78 252 0.0 0.0 0.00 0.00 0.00 53 1010.7
20260510000906 81 252 0.0 0.0 0.00 0.00 0.00 50 1010.6
20260510000404 82 252 0.0 0.0 0.00 0.00 0.00 47 1010.6
20260509235859 82 252 0.0 0.0 0.00 0.00 0.00 46 1010.6
20260509235356 83 252 0.0 0.0 0.00 0.00 0.00 46 1010.5
20260509234852 82 252 0.0 0.0 0.00 0.00 0.00 46 1010.4
20260509234350 82 252 0.0 0.0 0.00 0.00 0.00 46 1010.6
20260509233848 83 252 0.0 0.0 0.00 0.00 0.00 44 1010.5
20260509233345 82 252 0.0 0.0 0.00 0.00 0.00 45 1010.6
20260509232840 80 252 0.0 0.0 0.00 0.00 0.00 47 1010.5
20260509232339 80 252 0.0 0.0 0.00 0.00 0.00 43 1010.7
20260509231834 81 252 0.0 0.0 0.00 0.00 0.00 41 1010.5
20260509231331 82 252 0.0 0.0 0.00 0.00 0.00 43 1010.4
20260509230829 83 245 0.9 1.7 0.00 0.00 0.00 42 1010.4
20260509230326 83 241 0.9 0.9 0.00 0.00 0.00 40 1010.3
20260509225821 83 211 0.0 0.0 0.00 0.00 0.00 41 1010.2
20260509225318 82 237 0.0 0.9 0.00 0.00 0.00 39 1010.3
20260509224814 84 231 0.9 0.9 0.00 0.00 0.00 38 1010.2
20260509224310 83 243 0.9 0.9 0.00 0.00 0.00 39 1010.2
20260509223807 84 249 1.7 2.6 0.00 0.00 0.00 40 1010.0
20260509223304 85 235 1.7 1.7 0.00 0.00 0.00 39 1009.8
20260509222801 84 237 0.9 0.9 0.00 0.00 0.00 40 1010.0
20260509222256 85 224 0.9 0.9 0.00 0.00 0.00 40 1010.1
20260509221753 85 249 0.9 0.9 0.00 0.00 0.00 40 1010.0
20260509221249 85 244 0.9 0.9 0.00 0.00 0.00 40 1010.2
20260509220745 85 233 1.7 1.7 0.00 0.00 0.00 40 1010.1
20260509220241 85 238 1.7 1.7 0.00 0.00 0.00 38 1010.0
20260509215736 84 187 0.0 0.9 0.00 0.00 0.00 39 1010.0
20260509215234 84 148 0.9 0.9 0.00 0.00 0.00 40 1010.0
20260509214731 83 221 0.0 0.0 0.00 0.00 0.00 44 1010.0
20260509214228 83 214 0.9 0.9 0.00 0.00 0.00 42 1010.1
20260509213725 80 352 0.0 0.9 0.00 0.00 0.00 50 1010.1
20260509213220 80 239 0.0 0.0 0.00 0.00 0.00 47 1010.1
20260509212718 81 239 0.0 0.0 0.00 0.00 0.00 42 1010.2
20260509212215 81 239 0.0 0.0 0.00 0.00 0.00 45 1010.2
20260509211711 85 224 1.7 2.6 0.00 0.00 0.00 40 1010.3
20260509211208 84 165 0.0 0.9 0.00 0.00 0.00 41 1010.3
20260509210704 84 182 0.9 0.9 0.00 0.00 0.00 39 1010.3
20260509210201 83 189 0.0 0.9 0.00 0.00 0.00 40 1010.4
20260509205701 81 235 0.0 0.0 0.00 0.00 0.00 39 1010.4